Terminal Aerodrome Forecast
Issued by NWS Sterling, VA

Current Version | Previous Version | Graphics & Text | Print | Product List | Glossary On
Versions: 1 2 3 4 5 6 7 8 9 10 11 12 13 14 15 16 17 18 19 20 21 22 23 24
000
FTUS41 KLWX 282340
TAFDCA
TAF
KDCA 282340Z 2900/2924 33017G25KT P6SM BKN070
     FM290200 32012G19KT P6SM FEW090
     FM290500 32008KT P6SM SKC
     FM291900 26006KT P6SM FEW250=

USA.gov is the U.S. government's official web portal to all federal, state and local government web resources and services.